OE3APM-13 Weather Reports


Display with metric or nautical units.
time (UTC)temp
F
wind
direction
speed
MPH
gust
MPH
rain 1hr
in
rain 24hr
in
rain mn
in
humidity
%
barometer
mb
20260510230232 53 25 4.0 7.0 0.00 0.00 0.00 81 1005.8
20260510225728 54 26 4.0 7.0 0.00 0.00 0.00 80 1005.8
20260510225227 54 29 3.0 5.0 0.00 0.00 0.00 79 1006.0
20260510224727 55 34 2.0 4.0 0.00 0.00 0.00 78 1006.0
20260510224229 55 40 2.0 4.0 0.00 0.00 0.00 76 1006.2
20260510223728 56 107 2.0 3.0 0.00 0.00 0.00 77 1006.4
20260510223227 56 126 1.0 3.0 0.00 0.00 0.00 77 1006.4
20260510222728 56 178 1.0 3.0 0.00 0.00 0.00 77 1006.6
20260510222228 56 178 1.0 3.0 0.00 0.00 0.00 77 1006.8
20260510221727 56 92 1.0 3.0 0.00 0.00 0.00 77 1006.7
20260510221229 56 92 2.0 3.0 0.00 0.00 0.00 77 1006.7
20260510220726 57 199 2.0 5.0 0.00 0.00 0.00 77 1006.8
20260510220224 57 215 2.0 5.0 0.00 0.00 0.00 76 1006.9
20260510215725 57 241 1.0 4.0 0.00 0.00 0.00 76 1006.9
20260510215224 57 53 2.0 6.0 0.00 0.00 0.00 75 1006.7
20260510214720 57 45 3.0 6.0 0.00 0.00 0.00 75 1006.6
20260510214220 57 66 3.0 5.0 0.00 0.00 0.00 75 1006.6
20260510213720 57 68 3.0 8.0 0.00 0.00 0.00 76 1006.7
20260510213217 57 26 2.0 8.0 0.00 0.00 0.00 76 1006.7
20260510212717 57 57 2.0 6.0 0.00 0.00 0.00 76 1006.8
20260510212216 57 65 2.0 6.0 0.00 0.00 0.00 76 1006.9
20260510211712 57 59 2.0 6.0 0.00 0.00 0.00 76 1007.0
20260510211211 57 46 2.0 5.0 0.00 0.00 0.00 76 1007.1
20260510210710 57 65 2.0 5.0 0.00 0.00 0.00 75 1007.3
20260510210210 57 47 3.0 5.0 0.00 0.00 0.00 75 1007.3
20260510205708 57 74 3.0 5.0 0.00 0.00 0.00 75 1007.3
20260510205209 57 61 3.0 5.0 0.00 0.00 0.00 74 1007.5
20260510204706 57 53 3.0 6.0 0.00 0.00 0.00 74 1007.5
20260510204206 57 43 2.0 6.0 0.00 0.00 0.00 74 1007.6
20260510203702 57 60 2.0 6.0 0.00 0.00 0.00 74 1007.7
20260510203203 58 59 1.0 6.0 0.00 0.00 0.00 74 1007.8
20260510202705 58 86 1.0 5.0 0.00 0.00 0.00 73 1007.8
20260510202202 58 95 2.0 5.0 0.00 0.00 0.00 73 1007.8
20260510201702 58 62 2.0 5.0 0.00 0.00 0.00 73 1007.8
20260510201201 58 78 2.0 6.0 0.00 0.00 0.00 72 1007.8
20260510200708 58 63 3.0 7.0 0.00 0.00 0.00 72 1007.9
20260510195657 59 67 2.0 6.0 0.00 0.00 0.00 72 1007.9
20260510195151 59 72 2.0 5.0 0.00 0.00 0.00 71 1008.0
20260510194643 59 96 1.0 6.0 0.00 0.00 0.00 71 1008.1
20260510194142 59 113 2.0 6.0 0.00 0.00 0.00 70 1008.1
20260510193641 59 95 2.0 7.0 0.00 0.00 0.00 70 1008.1
20260510193141 59 54 2.0 7.0 0.00 0.00 0.00 69 1008.0
20260510192641 59 99 2.0 6.0 0.00 0.00 0.00 69 1008.1
20260510192140 59 75 2.0 4.0 0.00 0.00 0.00 69 1008.1
20260510191638 60 46 2.0 7.0 0.00 0.00 0.00 67 1008.1
20260510191137 60 77 1.0 7.0 0.00 0.00 0.00 67 1008.1
20260510190634 60 54 1.0 5.0 0.00 0.00 0.00 67 1008.1
20260510190132 61 71 1.0 5.0 0.00 0.00 0.00 66 1008.1
20260510185633 61 50 1.0 4.0 0.00 0.00 0.00 65 1008.1
20260510185130 62 63 1.0 4.0 0.00 0.00 0.00 64 1008.1
20260510184630 62 60 1.0 3.0 0.00 0.00 0.00 64 1008.1
20260510184131 62 55 1.0 3.0 0.00 0.00 0.00 63 1008.1
20260510183630 63 68 1.0 3.0 0.00 0.00 0.00 61 1008.1
20260510183130 63 67 1.0 3.0 0.00 0.00 0.00 59 1008.2
20260510182629 64 71 1.0 3.0 0.00 0.00 0.00 59 1008.2
20260510182134 64 83 1.0 6.0 0.00 0.00 0.00 58 1008.2
20260510181614 65 84 1.0 6.0 0.00 0.00 0.00 58 1008.3
20260510181114 65 65 2.0 8.0 0.00 0.00 0.00 57 1008.3
20260510180614 65 48 2.0 8.0 0.00 0.00 0.00 56 1008.2
20260510180114 66 94 2.0 8.0 0.00 0.00 0.00 55 1008.3
20260510175614 66 91 3.0 8.0 0.00 0.00 0.00 55 1008.3
20260510175113 66 64 3.0 8.0 0.00 0.00 0.00 54 1008.4
20260510174612 67 80 4.0 11.0 0.00 0.00 0.00 53 1008.4
20260510174112 67 115 4.0 11.0 0.00 0.00 0.00 53 1008.4
20260510173611 67 89 3.0 7.0 0.00 0.00 0.00 52 1008.4
20260510173111 67 109 3.0 7.0 0.00 0.00 0.00 51 1008.4
20260510172610 67 100 4.0 10.0 0.00 0.00 0.00 51 1008.6
20260510172108 67 78 5.0 13.0 0.00 0.00 0.00 51 1008.6
20260510171608 68 112 6.0 13.0 0.00 0.00 0.00 50 1008.6
20260510171112 68 148 5.0 11.0 0.00 0.00 0.00 50 1008.7
20260510170606 68 87 4.0 12.0 0.00 0.00 0.00 49 1008.7
20260510170059 68 142 5.0 12.0 0.00 0.00 0.00 49 1008.8
20260510165602 68 128 5.0 11.0 0.00 0.00 0.00 48 1008.8
20260510165058 68 66 5.0 11.0 0.00 0.00 0.00 48 1008.9
20260510164559 69 63 5.0 15.0 0.00 0.00 0.00 49 1008.9
20260510164059 69 115 7.0 15.0 0.00 0.00 0.00 47 1008.9
20260510163557 69 107 7.0 15.0 0.00 0.00 0.00 47 1008.9
20260510163057 70 79 6.0 15.0 0.00 0.00 0.00 47 1009.0
20260510162606 70 38 5.0 15.0 0.00 0.00 0.00 46 1009.0
20260510162058 70 13 6.0 15.0 0.00 0.00 0.00 46 1009.0
20260510161558 70 117 4.0 10.0 0.00 0.00 0.00 47 1009.0
20260510161059 70 52 3.0 9.0 0.00 0.00 0.00 47 1009.2
20260510160604 70 71 4.0 13.0 0.00 0.00 0.00 47 1009.3
20260510160101 70 106 5.0 13.0 0.00 0.00 0.00 46 1009.4
20260510155554 70 130 4.0 11.0 0.00 0.00 0.00 46 1009.5
20260510155057 70 136 5.0 11.0 0.00 0.00 0.00 47 1009.6
20260510154556 70 140 6.0 12.0 0.00 0.00 0.00 47 1009.6
20260510154054 70 157 5.0 15.0 0.00 0.00 0.00 46 1009.8
20260510153554 70 127 4.0 15.0 0.00 0.00 0.00 47 1009.8
20260510153054 70 101 6.0 12.0 0.00 0.00 0.00 45 1009.8
20260510152554 70 76 7.0 16.0 0.00 0.00 0.00 47 1009.9
20260510152055 70 53 6.0 16.0 0.00 0.00 0.00 46 1010.0
20260510151554 70 110 7.0 14.0 0.00 0.00 0.00 47 1010.0
20260510151051 70 40 5.0 14.0 0.00 0.00 0.00 46 1010.0
20260510150550 71 75 4.0 12.0 0.00 0.00 0.00 45 1010.1
20260510150030 71 129 4.0 11.0 0.00 0.00 0.00 46 1010.1
20260510145530 71 135 5.0 10.0 0.00 0.00 0.00 46 1010.2
20260510145031 71 87 5.0 10.0 0.00 0.00 0.00 47 1010.2
20260510144530 71 34 5.0 14.0 0.00 0.00 0.00 45 1010.3
20260510144029 71 69 6.0 14.0 0.00 0.00 0.00 46 1010.3
20260510143530 71 98 5.0 12.0 0.00 0.00 0.00 45 1010.4
20260510143031 70 101 4.0 11.0 0.00 0.00 0.00 46 1010.4
20260510142530 70 107 6.0 12.0 0.00 0.00 0.00 47 1010.5
20260510142030 70 125 5.0 12.0 0.00 0.00 0.00 48 1010.4
20260510141531 70 308 5.0 15.0 0.00 0.00 0.00 46 1010.4
20260510141030 70 78 5.0 15.0 0.00 0.00 0.00 46 1010.5
20260510140531 71 82 5.0 13.0 0.00 0.00 0.00 45 1010.5
20260510140030 70 106 5.0 13.0 0.00 0.00 0.00 47 1010.6
20260510135531 70 173 5.0 11.0 0.00 0.00 0.00 47 1010.7
20260510135029 70 54 5.0 12.0 0.00 0.00 0.00 47 1010.7
20260510134532 70 61 5.0 12.0 0.00 0.00 0.00 47 1010.8
20260510134032 70 111 6.0 12.0 0.00 0.00 0.00 45 1011.0
20260510133530 70 182 5.0 11.0 0.00 0.00 0.00 47 1011.1
20260510133032 70 44 5.0 11.0 0.00 0.00 0.00 46 1011.1
20260510132530 71 136 6.0 11.0 0.00 0.00 0.00 46 1011.2
20260510132029 71 144 5.0 11.0 0.00 0.00 0.00 47 1011.2
20260510131530 71 173 7.0 12.0 0.00 0.00 0.00 45 1011.3
20260510131030 71 185 6.0 12.0 0.00 0.00 0.00 44 1011.3
20260510130532 71 165 5.0 11.0 0.00 0.00 0.00 45 1011.3
20260510130029 71 94 4.0 11.0 0.00 0.00 0.00 47 1011.4
20260510125530 71 259 5.0 11.0 0.00 0.00 0.00 45 1011.4
20260510125029 70 84 7.0 16.0 0.00 0.00 0.00 47 1011.5
20260510124529 70 147 7.0 16.0 0.00 0.00 0.00 45 1011.6
20260510124025 71 69 6.0 13.0 0.00 0.00 0.00 46 1011.6
20260510123526 70 164 5.0 14.0 0.00 0.00 0.00 47 1011.7
20260510123025 70 110 7.0 19.0 0.00 0.00 0.00 49 1011.7
20260510122526 70 322 7.0 19.0 0.00 0.00 0.00 49 1011.8
20260510122027 70 117 5.0 13.0 0.00 0.00 0.00 48 1011.9
20260510121527 70 173 5.0 12.0 0.00 0.00 0.00 51 1012.1
20260510121024 69 141 5.0 15.0 0.00 0.00 0.00 48 1012.1
20260510120527 69 141 5.0 15.0 0.00 0.00 0.00 48 1012.2
20260510120030 69 78 7.0 17.0 0.00 0.00 0.00 48 1012.3
20260510115515 68 152 8.0 17.0 0.00 0.00 0.00 49 1012.5
20260510115005 68 59 7.0 13.0 0.00 0.00 0.00 47 1012.4
20260510114503 68 77 6.0 14.0 0.00 0.00 0.00 47 1012.4
20260510114004 69 74 6.0 14.0 0.00 0.00 0.00 46 1012.5
20260510113503 69 28 7.0 15.0 0.00 0.00 0.00 46 1012.6
20260510113002 68 131 7.0 15.0 0.00 0.00 0.00 48 1012.6
20260510112503 68 169 7.0 14.0 0.00 0.00 0.00 50 1012.8
20260510112005 68 119 7.0 15.0 0.00 0.00 0.00 48 1012.9
20260510111504 68 54 7.0 16.0 0.00 0.00 0.00 47 1012.8
20260510111005 69 59 7.0 16.0 0.00 0.00 0.00 46 1012.9
20260510110500 69 115 6.0 12.0 0.00 0.00 0.00 48 1013.0
20260510105953 68 58 7.0 12.0 0.00 0.00 0.00 47 1013.0
20260510105454 69 125 6.0 14.0 0.00 0.00 0.00 47 1013.0
20260510104953 68 123 5.0 14.0 0.00 0.00 0.00 47 1013.1
20260510104453 68 135 6.0 13.0 0.00 0.00 0.00 48 1013.3
20260510103954 67 69 6.0 13.0 0.00 0.00 0.00 48 1013.3
20260510103454 67 38 5.0 11.0 0.00 0.00 0.00 51 1013.4
20260510102953 67 111 6.0 16.0 0.00 0.00 0.00 48 1013.5
20260510102453 66 89 7.0 16.0 0.00 0.00 0.00 50 1013.6
20260510101949 66 138 5.0 14.0 0.00 0.00 0.00 48 1013.7
20260510101452 66 95 5.0 12.0 0.00 0.00 0.00 48 1013.7
20260510100946 66 163 6.0 16.0 0.00 0.00 0.00 48 1013.8
20260510100448 66 92 5.0 16.0 0.00 0.00 0.00 47 1013.8
20260510095943 67 148 5.0 11.0 0.00 0.00 0.00 49 1013.9
20260510095442 66 83 6.0 15.0 0.00 0.00 0.00 52 1013.8
20260510094934 65 120 5.0 15.0 0.00 0.00 0.00 49 1013.7
20260510094433 65 82 5.0 12.0 0.00 0.00 0.00 52 1013.8
20260510093933 65 123 6.0 15.0 0.00 0.00 0.00 51 1013.6
20260510093432 65 119 7.0 17.0 0.00 0.00 0.00 51 1013.7
20260510092931 65 139 7.0 17.0 0.00 0.00 0.00 52 1013.9
20260510092432 64 92 7.0 13.0 0.00 0.00 0.00 53 1013.9
20260510091931 64 90 6.0 14.0 0.00 0.00 0.00 52 1014.1
20260510091432 64 180 6.0 14.0 0.00 0.00 0.00 52 1014.1
20260510090931 63 31 5.0 14.0 0.00 0.00 0.00 56 1014.2
20260510090432 63 97 5.0 14.0 0.00 0.00 0.00 58 1014.3
20260510085932 63 57 5.0 13.0 0.00 0.00 0.00 53 1014.3
20260510085430 63 15 6.0 14.0 0.00 0.00 0.00 53 1014.4
20260510084931 63 128 7.0 14.0 0.00 0.00 0.00 53 1014.5
20260510084430 63 106 7.0 14.0 0.00 0.00 0.00 54 1014.5
20260510083931 62 142 5.0 11.0 0.00 0.00 0.00 56 1014.5
20260510083428 62 80 5.0 14.0 0.00 0.00 0.00 58 1014.7
20260510082930 62 113 4.0 14.0 0.00 0.00 0.00 56 1014.7
20260510082429 61 62 5.0 15.0 0.00 0.00 0.00 55 1014.7
20260510081922 61 88 5.0 15.0 0.00 0.00 0.00 57 1014.7
20260510081412 61 35 5.0 10.0 0.00 0.00 0.00 59 1014.7
20260510080910 60 131 4.0 10.0 0.00 0.00 0.00 60 1014.7
20260510080405 60 98 6.0 16.0 0.00 0.00 0.00 57 1014.8
20260510075852 60 109 6.0 16.0 0.00 0.00 0.00 55 1014.9
20260510075348 60 56 4.0 11.0 0.00 0.00 0.00 60 1015.0
20260510074842 59 145 5.0 11.0 0.00 0.00 0.00 57 1015.0
20260510074341 59 32 5.0 11.0 0.00 0.00 0.00 57 1015.0
20260510073842 59 32 6.0 14.0 0.00 0.00 0.00 57 1015.0
20260510073342 58 79 6.0 14.0 0.00 0.00 0.00 59 1015.0
20260510072840 58 149 6.0 13.0 0.00 0.00 0.00 59 1015.0
20260510072338 58 60 5.0 10.0 0.00 0.00 0.00 60 1015.2
20260510071837 57 100 4.0 8.0 0.00 0.00 0.00 61 1015.2
20260510071336 57 95 5.0 12.0 0.00 0.00 0.00 62 1015.2
20260510070838 56 131 5.0 12.0 0.00 0.00 0.00 60 1015.2
20260510070337 56 84 4.0 11.0 0.00 0.00 0.00 63 1015.2
20260510065834 56 171 3.0 8.0 0.00 0.00 0.00 64 1015.4
20260510065334 55 78 3.0 8.0 0.00 0.00 0.00 64 1015.4
20260510064840 55 169 3.0 7.0 0.00 0.00 0.00 64 1015.6
20260510064333 54 51 4.0 12.0 0.00 0.00 0.00 65 1015.6
20260510063831 54 130 5.0 12.0 0.00 0.00 0.00 65 1015.6
20260510063330 54 81 4.0 10.0 0.00 0.00 0.00 66 1015.8
20260510062829 53 92 3.0 8.0 0.00 0.00 0.00 66 1015.9
20260510062327 53 85 3.0 7.0 0.00 0.00 0.00 68 1015.8
20260510061826 53 68 3.0 8.0 0.00 0.00 0.00 69 1015.8
20260510061326 52 98 4.0 8.0 0.00 0.00 0.00 69 1015.9
20260510060826 52 108 5.0 8.0 0.00 0.00 0.00 69 1015.9
20260510060326 52 71 3.0 8.0 0.00 0.00 0.00 70 1016.0
20260510055824 51 104 3.0 7.0 0.00 0.00 0.00 72 1016.0
20260510055321 51 132 3.0 9.0 0.00 0.00 0.00 72 1016.1
20260510054820 50 123 4.0 11.0 0.00 0.00 0.00 73 1016.1
20260510054319 50 101 4.0 11.0 0.00 0.00 0.00 74 1016.1
20260510053818 49 98 5.0 11.0 0.00 0.00 0.00 74 1016.1
20260510053319 49 107 4.0 9.0 0.00 0.00 0.00 75 1016.1
20260510052818 49 129 3.0 9.0 0.00 0.00 0.00 77 1016.0
20260510052315 48 82 3.0 8.0 0.00 0.00 0.00 78 1016.1
20260510051816 47 103 4.0 8.0 0.00 0.00 0.00 79 1016.0
20260510051316 47 61 3.0 8.0 0.00 0.00 0.00 80 1016.0
20260510050812 46 90 2.0 8.0 0.00 0.00 0.00 81 1016.0
20260510050313 45 59 2.0 6.0 0.00 0.00 0.00 83 1016.0
20260510045809 45 24 2.0 6.0 0.00 0.00 0.00 83 1016.0
20260510045307 44 73 2.0 5.0 0.00 0.00 0.00 83 1015.9
20260510044808 44 46 2.0 5.0 0.00 0.00 0.00 84 1016.0
20260510044308 44 42 2.0 4.0 0.00 0.00 0.00 84 1016.0
20260510043808 43 24 2.0 4.0 0.00 0.00 0.00 85 1016.1
20260510043307 43 17 2.0 3.0 0.00 0.00 0.00 86 1016.1
20260510042807 43 9 2.0 3.0 0.00 0.00 0.00 86 1016.2
20260510042308 43 26 2.0 4.0 0.00 0.00 0.00 86 1016.1
20260510041807 42 5 2.0 4.0 0.00 0.00 0.00 86 1016.1
20260510041303 42 5 2.0 4.0 0.00 0.00 0.00 85 1016.0
20260510040805 42 15 2.0 4.0 0.00 0.00 0.00 85 1016.0
20260510040304 42 22 2.0 4.0 0.00 0.00 0.00 85 1016.0
20260510035806 42 44 2.0 4.0 0.00 0.00 0.00 86 1016.0
20260510035306 42 24 2.0 4.0 0.00 0.00 0.00 85 1016.0
20260510034801 42 17 2.0 3.0 0.00 0.00 0.00 86 1016.0
20260510034305 42 34 1.0 6.0 0.00 0.00 0.00 86 1016.0
20260510033803 42 21 2.0 6.0 0.00 0.00 0.00 86 1016.0
20260510033301 41 53 1.0 5.0 0.00 0.00 0.00 86 1016.1
20260510032758 41 35 1.0 3.0 0.00 0.00 0.00 86 1016.1
20260510032252 41 63 1.0 3.0 0.00 0.00 0.00 85 1016.1
20260510031746 41 78 1.0 3.0 0.00 0.00 0.00 85 1016.2
20260510031245 41 68 2.0 3.0 0.00 0.00 0.00 84 1016.3
20260510030738 42 46 2.0 3.0 0.00 0.00 0.00 84 1016.3
20260510030232 42 63 2.0 3.0 0.00 0.00 0.00 84 1016.3
20260510025727 42 53 1.0 3.0 0.00 0.00 0.00 84 1016.5
20260510025222 42 67 1.0 4.0 0.00 0.00 0.00 84 1016.5
20260510024720 42 65 0.0 4.0 0.00 0.00 0.00 84 1016.5
20260510024219 42 82 0.0 0.0 0.00 0.00 0.00 84 1016.6
20260510023718 42 107 0.0 3.0 0.00 0.00 0.00 84 1016.6
20260510023216 42 107 1.0 3.0 0.00 0.00 0.00 84 1016.7
20260510022712 42 52 1.0 2.0 0.00 0.00 0.00 84 1016.7
20260510022212 42 46 2.0 6.0 0.00 0.00 0.00 83 1016.7
20260510021712 42 46 2.0 6.0 0.00 0.00 0.00 83 1016.6
20260510021211 42 98 2.0 3.0 0.00 0.00 0.00 83 1016.5
20260510020712 42 61 1.0 3.0 0.00 0.00 0.00 83 1016.5
20260510020210 42 91 1.0 3.0 0.00 0.00 0.00 82 1016.5
20260510015708 42 91 1.0 3.0 0.00 0.00 0.00 82 1016.5
20260510015209 42 73 1.0 4.0 0.00 0.00 0.00 82 1016.3
20260510014708 42 79 2.0 4.0 0.00 0.00 0.00 83 1016.3
20260510014206 42 40 2.0 4.0 0.00 0.00 0.00 82 1016.2
20260510013706 43 38 3.0 4.0 0.00 0.00 0.00 81 1016.2
20260510013203 43 60 1.0 4.0 0.00 0.00 0.00 81 1016.3
20260510012704 43 69 0.0 3.0 0.00 0.00 0.00 79 1016.5
20260510012202 44 69 0.0 1.0 0.00 0.00 0.00 79 1016.6
20260510011704 44 69 1.0 2.0 0.00 0.00 0.00 78 1016.6
20260510011153 44 69 2.0 3.0 0.00 0.00 0.00 78 1016.6
20260510010646 44 69 2.0 3.0 0.00 0.00 0.00 78 1016.7
20260510010146 45 70 1.0 2.0 0.00 0.00 0.00 78 1016.7
20260510005646 45 70 1.0 3.0 0.00 0.00 0.00 77 1016.8
20260510005145 45 70 2.0 3.0 0.00 0.00 0.00 78 1017.0
20260510004646 45 82 2.0 3.0 0.00 0.00 0.00 78 1017.0
20260510004145 45 84 1.0 3.0 0.00 0.00 0.00 78 1017.0
20260510003647 45 88 1.0 5.0 0.00 0.00 0.00 78 1017.0
20260510003146 45 89 2.0 6.0 0.00 0.00 0.00 78 1017.1
20260510002644 46 104 1.0 6.0 0.00 0.00 0.00 77 1017.0
20260510002143 46 125 1.0 3.0 0.00 0.00 0.00 77 1017.1
20260510001639 46 100 1.0 3.0 0.00 0.00 0.00 77 1017.1
20260510001140 46 85 2.0 5.0 0.00 0.00 0.00 76 1017.1
20260510000639 46 85 2.0 6.0 0.00 0.00 0.00 76 1017.2
20260510000137 46 78 1.0 6.0 0.00 0.00 0.00 76 1017.4
20260509235637 47 75 2.0 5.0 0.00 0.00 0.00 75 1017.5
20260509235136 47 71 3.0 5.0 0.00 0.00 0.00 76 1017.5
20260509234635 47 53 2.0 6.0 0.00 0.00 0.00 75 1017.6
20260509234134 47 101 2.0 6.0 0.00 0.00 0.00 75 1017.6
20260509233638 47 92 2.0 5.0 0.00 0.00 0.00 76 1017.7
20260509233133 47 55 2.0 3.0 0.00 0.00 0.00 74 1017.7
20260509232625 48 92 1.0 5.0 0.00 0.00 0.00 74 1017.9
20260509232124 48 118 1.0 5.0 0.00 0.00 0.00 73 1018.0
20260509231613 48 84 0.0 2.0 0.00 0.00 0.00 73 1018.0
20260509231113 48 84 2.0 7.0 0.00 0.00 0.00 73 1017.9
20260509230613 48 120 2.0 7.0 0.00 0.00 0.00 73 1018.0